Flight Track Log - Related Links

Times and Time Zones

All times are in EST time to prevent confusion due to time zone crossing. See the N27XP flight status page for this flight to view local times or setup timezone preferences in your user account.

Time Position Orientation Groundspeed Altitude Reporting Facility
EST Latitude Longitude Course Direction KTS MPH feet Rate Location/Type
10:16AM 35.2667 -79.4103 170° South 218 251 3,600  Level Washington Center
10:17AM 35.2089 -79.3975 170° South 263 303 5,400 1,881 Climbing Washington Center
10:18AM 35.1606 -79.3419 137° Southeast 262 302 7,300 1,785 Climbing Washington Center
10:19AM 35.1061 -79.2733 134° Southeast 270 311 9,000 835 Climbing Washington Center
10:21AM 34.9697 -79.0922 133° Southeast 351 404 10,000 314 Climbing Washington Center
10:22AM 34.8975 -78.9928 132° Southeast 351 404 10,000 504 Level Washington Center
10:23AM 34.8311 -78.9042 132° Southeast 356 410 11,000 590 Climbing Washington Center
10:24AM 34.7583 -78.8203 136° Southeast 356 410 11,200 9,613 Climbing Washington Center
10:26AM 34.6167 -78.6506 135° Southeast 356 410 40,000 9,708 Climbing Washington Center
10:27AM 34.6025 -78.6325 134° Southeast 356 410 40,000 -11,339 Level Washington Center
10:28AM 34.4819 -78.4542 129° Southeast 426 490 17,700 -10,364 Descending Washington Center
10:29AM 34.4069 -78.3558 133° Southeast 404 465 19,100 1,550 Climbing Washington Center
10:30AM 34.3342 -78.2578 132° Southeast 393 452 20,800 1,765 Climbing Washington Center
10:31AM 34.2631 -78.1675 134° Southeast 381 438 22,600 1,488 Climbing Washington Center
10:32AM 34.1919 -78.0750 133° Southeast 381 438 23,800 1,200 Climbing Washington Center
10:33AM 34.1083 -77.9847 138° Southeast 389 448 25,000 1,259 Climbing Washington Center
10:36AM 33.8522 -77.9489 173° South 357 411 28,100 1,194 Climbing Jacksonville Center
10:37AM 33.7497 -77.9397 176° South 363 418 29,100 950 Climbing Jacksonville Center
10:38AM 33.6450 -77.9356 178° South 374 430 30,000 450 Climbing Jacksonville Center
10:39AM 33.5342 -77.9292 177° South 387 445 30,000  Level Jacksonville Center
10:40AM 33.4192 -77.9208 177° South 401 461 30,000  Level Jacksonville Center
10:41AM 33.3000 -77.9150 178° South 425 489 30,000  Level Jacksonville Center
10:42AM 33.1747 -77.9097 178° South 440 506 30,000 350 Level Jacksonville Center
10:43AM 33.0553 -77.9014 177° South 445 512 30,700 800 Climbing Jacksonville Center
10:44AM 32.9361 -77.8933 177° South 439 505 31,600 950 Climbing Jacksonville Center
10:45AM 32.8211 -77.8872 177° South 434 499 32,600 950 Climbing Jacksonville Center
10:46AM 32.7058 -77.8764 175° South 423 487 33,500 950 Climbing Jacksonville Center
10:47AM 32.5953 -77.8750 179° South 417 480 34,500 950 Climbing Jacksonville Center
10:48AM 32.4864 -77.8689 177° South 404 465 35,400 750 Climbing Jacksonville Center
10:49AM 32.3794 -77.8575 175° South 398 458 36,000 300 Climbing Jacksonville Center
10:50AM 32.2647 -77.8539 178° South 405 466 36,000  Level Jacksonville Center
10:51AM 32.1475 -77.8506 179° South 415 478 36,000  Level Jacksonville Center
10:52AM 32.0261 -77.8400 176° South 427 491 36,000  Level Jacksonville Center
10:53AM 31.9047 -77.8322 177° South 434 499 36,000 50 Level Jacksonville Center
10:54AM 31.7792 -77.8244 177° South 445 512 36,100 450 Climbing Jacksonville Center
10:55AM 31.6558 -77.8189 178° South 445 512 36,900 850 Climbing Jacksonville Center
10:56AM 31.5386 -77.8131 178° South 440 506 37,800 900 Climbing Jacksonville Center
10:57AM 31.4194 -77.8050 177° South 422 486 38,700 700 Climbing Jacksonville Center
10:58AM 31.3044 -77.8039 180° South 419 482 39,200 500 Climbing Jacksonville Center
10:59AM 31.1875 -77.7981 178° South 418 481 39,700 400 Climbing Jacksonville Center
11:00AM 31.0703 -77.7900 177° South 423 487 40,000 150 Climbing Jacksonville Center
11:01AM 30.9550 -77.7769 174° South 423 487 40,000  Level Jacksonville Center
11:02AM 30.8358 -77.7736 179° South 429 494 40,000  Level Jacksonville Center
11:03AM 30.7164 -77.7608 175° South 427 491 40,000  Level Jacksonville Center
11:05AM 30.5236 -77.7586 179° South 439 505 40,000  Level Miami Center
11:06AM 30.3964 -77.7528 178° South 447 514 40,000  Level Miami Center
11:07AM 30.2567 -77.7444 177° South 442 509 40,000  Level Miami Center
11:08AM 30.1422 -77.7458 181° South 434 499 40,000  Level Miami Center
11:09AM 30.0317 -77.7378 176° South 441 507 40,000  Level Miami Center
11:10AM 29.9108 -77.7344 179° South 442 509 40,000  Level Miami Center
11:11AM 29.7858 -77.7239 176° South 442 509 40,000  Level Miami Center
11:12AM 29.6606 -77.7181 178° South 455 524 40,000  Level Miami Center
11:13AM 29.5356 -77.7075 176° South 449 517 40,000  Level Miami Center
11:14AM 29.4125 -77.7017 178° South 449 517 40,000  Level Miami Center
11:15AM 29.2914 -77.6961 178° South 444 511 40,000  Level Miami Center
11:16AM 29.1664 -77.6881 177° South 455 524 40,000  Level Miami Center
11:17AM 29.0350 -77.6775 176° South 450 518 40,000  Level Miami Center
11:18AM 28.9119 -77.6694 177° South 456 525 40,000 -50 Level Miami Center
11:19AM 28.7867 -77.6614 177° South 456 525 39,900  Descending Miami Center
11:20AM 28.6636 -77.6558 178° South 450 518 40,000 -200 Climbing Miami Center
11:21AM 28.5406 -77.6503 178° South 457 526 39,500 -750 Descending Miami Center
11:22AM 28.4111 -77.6400 176° South 457 526 38,500 -1,050 Descending Miami Center
11:23AM 28.2733 -77.6319 177° South 478 550 37,400 -1,100 Descending Miami Center
11:24AM 28.1439 -77.6264 178° South 478 550 36,300 -1,050 Descending Miami Center
11:25AM 28.0231 -77.6186 177° South 463 533 35,300 -1,000 Descending Miami Center
11:26AM 27.8978 -77.6131 178° South 453 521 34,300 -650 Descending Miami Center
11:27AM 27.7683 -77.6050 177° South 454 522 34,000 -150 Descending Miami Center
11:28AM 27.6492 -77.5997 178° South 449 517 34,000  Level Miami Center
11:29AM 27.5239 -77.5942 178° South 449 517 34,000 -400 Level Miami Center
11:30AM 27.4008 -77.5722 171° South 449 517 33,200 -1,400 Descending Miami Center
11:31AM 27.2756 -77.5739 181° South 449 517 31,200 -2,000 Descending Miami Center
11:32AM 27.1503 -77.5683 178° South 449 517 29,200 -2,000 Descending Miami Center
11:33AM 27.0228 -77.5561 175° South 449 517 27,200 -2,050 Descending Miami Center
11:34AM 26.8956 -77.5644 183° South 465 535 25,100 -1,800 Descending Miami Center
11:35AM 26.7744 -77.5522 175° South 453 521 23,600 -1,700 Descending Miami Center
11:36AM 26.6511 -77.5422 176° South 453 521 21,700 -1,700 Descending Miami Center
11:37AM 26.5300 -77.5322 176° South 448 516 20,200 -1,200 Descending Miami Center
11:38AM 26.4150 -77.5292 179° South 431 496 19,300 -950 Descending Miami Center
11:39AM 26.3003 -77.5194 176° South 419 482 18,300 -1,000 Descending Miami Center
11:40AM 26.1875 -77.5164 179° South 414 476 17,300 -950 Descending Miami Center
11:41AM 26.0850 -77.5111 177° South 395 455 16,400 -900 Descending Miami Center
11:42AM 25.9828 -77.5036 176° South 381 438 15,500 -850 Descending Miami Center
11:43AM 25.8844 -77.4986 177° South 365 420 14,700 -850 Descending Miami Center
11:44AM 25.7883 -77.4933 177° South 359 413 13,800 -800 Descending Miami Center
11:45AM 25.6986 -77.4906 178° South 340 391 13,100 -400 Descending Miami Center
11:46AM 25.6128 -77.4833 176° South 326 375 13,000 -1,150 Descending Miami Center
11:47AM 25.5272 -77.4783 177° South 315 362 10,800 -2,200 Descending Miami Center
11:49AM 25.3177 -77.4667 180° South  Level FlightAware Approximate
11:56AM 25.0333 -77.4500 170° South  Level FlightAware Approximate
11:57AM 25.0390 -77.4662 170° South  Level Estimated
11:58AM 25.0390 -77.4662 170° South  Level Estimated
11:59AM 25.0390 -77.4662 170° South  Level Estimated
12:00PM 25.0390 -77.4662 170° South  Level Estimated
12:01PM 25.0390 -77.4662 170° South  Level Estimated
12:02PM 25.0390 -77.4662 170° South  Level Estimated
12:03PM 25.0390 -77.4662 170° South  Level Estimated
12:04PM 25.0390 -77.4662 170° South  Level Estimated
12:05PM 25.0390 -77.4662 170° South  Level Estimated
12:06PM 25.0390 -77.4662 170° South  Level Estimated

Login

Don't have an account? Register now (free) for customized features, flight alerts, and more!